Flag for United Kingdom Weather past 2 weeks in Truro, England, United Kingdom

Now
72 °F

Passing clouds.


Feels Like: 72 °F
Forecast: 62 / 72 °F
Wind: 5 mph from Southwest

Location: Culdrose

Current Time: Jul 22, 2014 at 8:50:04 PM

Latest Report: Jul 22, 2014 at 5:50 PM


Visibility: N/A

Pressure: 30.18 "Hg

Humidity: 78%

Dew point: 64 °F

Location of TruroLocation

Historic Weather in Truro — Graph

°F

Truro temperature yesterday

Maximum temperature yesterday: 72 °F (at 2:50 PM)
Minimum temperature yesterday: 57 °F (at 2:50 AM)
Average temperature yesterday: 65 °F

Past Weeks' High & Low Weather Summary

 TemperatureHumidityPressure
High72 °F (Jul 20, 12:50 PM)100% (Jul 12, 4:50 AM)30.27 "Hg (Jul 12, 4:50 AM)
Low52 °F (Jul 8, 5:50 AM)49% (Jul 13, 4:50 PM)29.77 "Hg (Jul 18, 1:50 AM)
Average63 °F84%30.07 "Hg
* Reported Jul 7 5:50 PM — Jul 22 5:50 PM, Truro, Weather by CustomWeather, © 2014

Note: Actual official high and low records may vary slightly from our data, if they occured in-between our weather recording intervals... More about our weather records

Advertising

Truro weather history for previous 24 hours

 ConditionsComfort  
Time TempWeatherWind HumidityBarometerVisibility
5:50 PM
Jul 22
72 °FPassing clouds.5 mph78%30.18 "HgN/A
4:50 PM70 °FScattered clouds.5 mph78%30.21 "HgN/A
3:50 PM68 °FScattered clouds.6 mph83%30.21 "HgN/A
2:50 PM70 °FScattered clouds.5 mph83%30.21 "HgN/A
1:50 PM70 °FScattered clouds.7 mph78%30.21 "HgN/A
12:50 PM68 °FScattered clouds.7 mph83%30.24 "HgN/A
11:50 AM70 °FScattered clouds.5 mph78%30.24 "HgN/A
10:50 AM66 °FPartly sunny.6 mph88%30.24 "HgN/A
9:50 AM68 °FScattered clouds.5 mph78%30.21 "HgN/A
8:50 AM66 °FScattered clouds.6 mph88%30.24 "HgN/A
7:50 AM64 °FFog.5 mph88%30.21 "HgN/A
6:50 AM59 °FFog.1 mph100%30.21 "HgN/A
5:50 AM59 °FFog.2 mph94%30.21 "HgN/A
4:50 AM61 °FFog.3 mph94%30.21 "HgN/A
3:50 AM59 °FHaze.2 mph94%30.21 "HgN/A
2:50 AM61 °FClear.6 mph94%30.21 "Hg10 mi
1:50 AM61 °FPassing clouds.6 mph94%30.21 "HgN/A
12:50 AM63 °FClear.3 mph88%30.21 "Hg10 mi
11:50 PM
Jul 21
63 °FPassing clouds.3 mph88%30.21 "HgN/A
10:50 PM63 °FPassing clouds.5 mph94%30.21 "HgN/A
9:50 PM64 °FPartly sunny.6 mph88%30.21 "HgN/A
8:50 PM64 °FPassing clouds.7 mph88%30.21 "HgN/A
Weather by CustomWeather, © 2014

See weather overviewHow to use our weather pages